This is the latest recevied weather packets stored in our database for station/object SQ7KHZ-10. If no packets are shown the sender has not sent any weather packets the latest 1 day(s).
| Time | Temp. | Humidity | Pressure | Rain* | Wind** | Luminosity | Snow |
|---|---|---|---|---|---|---|---|
| 1778031146 | 11.11° C | 66% | 1005.5 hPa | 0 mm | 0 m/s | - | - |
| 1778029946 | 11.11° C | 70% | 1005.6 hPa | 0 mm | 0 m/s | - | - |
| 1778028734 | 11.11° C | 69% | 1005.7 hPa | 0 mm | 0 m/s | - | - |
| 1778027522 | 11.11° C | 67% | 1005.6 hPa | 0 mm | 0 m/s | - | - |
| 1778026322 | 11.11° C | 71% | 1005.7 hPa | 0 mm | 0 m/s | - | - |
| 1778025120 | 11.11° C | 69% | 1005.7 hPa | 0 mm | 0 m/s | - | - |
| 1778023906 | 11.67° C | 65% | 1005.8 hPa | 0 mm | 0 m/s | - | - |
| 1778022706 | 12.22° C | 60% | 1005.8 hPa | 0 mm | 0 m/s | - | - |
| 1778021494 | 12.22° C | 59% | 1005.8 hPa | 0 mm | 0 m/s | - | - |
| 1778020282 | 12.22° C | 60% | 1005.9 hPa | 0 mm | 0 m/s | - | - |
| 1778019080 | 12.78° C | 55% | 1005.8 hPa | 0 mm | 0 m/s | - | - |
| 1778017869 | 13.33° C | 57% | 1005.9 hPa | 0 mm | 0 m/s | - | - |
| 1778016657 | 15° C | 50% | 1005.9 hPa | 0 mm | 0 m/s | - | - |
| 1778015454 | 15° C | 50% | 1005.8 hPa | 0 mm | 0 m/s | - | - |
| 1778014249 | 14.44° C | 50% | 1005.9 hPa | 0 mm | 0 m/s | - | - |
| 1778013047 | 13.89° C | 56% | 1006 hPa | 0 mm | 0 m/s | - | - |
| 1778011847 | 15° C | 52% | 1005.8 hPa | 0 mm | 0 m/s | - | - |
| 1778010635 | 15° C | 50% | 1005.8 hPa | 0 mm | 0 m/s | - | - |
| 1778009434 | 15.56° C | 50% | 1005.7 hPa | 0 mm | 0 m/s | - | - |
| 1778008223 | 17.22° C | 48% | 1005.7 hPa | 0 mm | 0 m/s | - | - |
| 1778007010 | 18.33° C | 42% | 1005.7 hPa | 0 mm | 0 m/s | - | - |
| 1778005787 | 20° C | 40% | 1005.6 hPa | 0 mm | 0 m/s | - | - |
| 1778004585 | 20.56° C | 34% | 1005.5 hPa | 0 mm | 0 m/s | - | - |
| 1778003385 | 22.22° C | 33% | 1005.3 hPa | 0 mm | 0 m/s | - | - |
| 1778002185 | 22.78° C | 34% | 1005.1 hPa | 0 mm | 0 m/s | - | - |
* Rain latest hour (hover to see other rain measurements)
** Current wind speed in m/s (hover to see current wind gust speed)